Regional Weather Roundup
Issued by NWS

Home | Current Version | Previous Version | Text Only | Print | Product List | Glossary On
Versions: 1 2 3 4 5 6 7 8 9 10 11 12 13 14 15 16 17 18 19 20 21 22 23 24 25 26 27 28
000
ASUS45 KREV 191210
RWRNV
NEVADA REGIONAL WEATHER ROUNDUP
NATIONAL WEATHER SERVICE RENO NV
400 AM PST SUN FEB 19 2017

NOTE: "FAIR" INDICATES FEW OR NO CLOUDS BELOW 12,000 FEET WITH NO
SIGNIFICANT WEATHER AND/OR OBSTRUCTIONS TO VISIBILITY.

NVZ001-003-004-191300-
WESTERN NEVADA

CITY           SKY/WX    TMP DP  RH WIND       PRES   REMARKS
RENO           CLOUDY    41  21  44 W18G33    29.69R
6HR MIN TEMP:  40; 6HR MAX TEMP:  44;

MINDEN         FAIR      39  27  60 W15G32    29.69R
PYRAMID LAKE     N/A     45 N/A N/A S23         N/A
FALLON         CLOUDY    39  33  79 CALM      29.64R
6HR MIN TEMP:  36; 6HR MAX TEMP:  45;

LOVELOCK       CLOUDY    34  29  82 SW3       29.63R
6HR MIN TEMP:  32; 6HR MAX TEMP:  45;

HAWTHORNE      CLEAR     36  30  80 W6        29.64R
$$

NVZ002-CAZ072-073-191300-
NORTHERN AND CENTRAL SIERRA

CITY           SKY/WX    TMP DP  RH WIND       PRES   REMARKS
S. LAKE TAHOE  LGT SNOW  32  28  85 CALM      29.70S FOG
6HR MIN TEMP:  31; 6HR MAX TEMP:  36; 6HR PCP: TRACE;

TRUCKEE        CLOUDY    30  19  64 CALM      29.76R
SQUAW VLY 8000 NOT AVBL
SUSANVILLE     CLEAR     39  28  65 W7G21     29.59R
MAMMOTH LAKES  FAIR      18  18  99 SE5       29.69R
6HR MIN TEMP:  12; 6HR MAX TEMP:  25;

BRIDGEPORT       N/A     35  21  56 SW16G28   29.64R
$$

NVZ030-031-036-191300-
NORTHERN NEVADA

CITY           SKY/WX    TMP DP  RH WIND       PRES   REMARKS
ELKO           CLOUDY    37  33  85 SW3       29.60S
6HR MIN TEMP:  37; 6HR MAX TEMP:  40;

WINNEMUCCA     MOCLDY    36  35  96 SW8       29.60R
6HR MIN TEMP:  34; 6HR MAX TEMP:  42; 6HR PCP: TRACE;

WENDOVER       PTCLDY    39  34  81 NE5       29.59S
$$

NVZ035-037-191300-
CENTRAL NEVADA

CITY           SKY/WX    TMP DP  RH WIND       PRES   REMARKS
ELY            LGT RAIN  36  33  89 S10       29.65S
6HR MIN TEMP:  33; 6HR MAX TEMP:  36; 6HR PCP:  0.05;

EUREKA           N/A     29  25  85 CALM      29.64R
6HR MIN TEMP:  26; 6HR MAX TEMP:  36;

$$

NVZ013-014-191300-
SOUTH CENTRAL NEVADA

CITY           SKY/WX    TMP DP  RH WIND       PRES   REMARKS
TONOPAH        CLOUDY    35  34  96 CALM      29.68S FOG
6HR MIN TEMP:  34; 6HR MAX TEMP:  38;

$$

NVZ017-020-022-191300-
SOUTHERN NEVADA

CITY           SKY/WX    TMP DP  RH WIND       PRES   REMARKS
LAS VEGAS      MOCLDY    50  45  83 S7        29.68R
6HR MIN TEMP:  50; 6HR MAX TEMP:  52; 6HR PCP:  0.01;

N. LAS VEGAS   CLOUDY    49  49 100 E8        29.69R
6HR MIN TEMP:  50; 6HR MAX TEMP:  51; 6HR PCP:  0.04;

NELLIS AFB     MOCLDY    51  48  89 SE14      29.69R
6HR MIN TEMP:  51; 6HR MAX TEMP:  52; 6HR PCP:  0.03;

HENDERSON      PTCLDY    48  45  89 S12       29.70S
6HR MIN TEMP:  48; 6HR MAX TEMP:  50; 6HR PCP:  0.03;

MERCURY        CLOUDY    46  45  96 SW5       29.69R
6HR MIN TEMP:  45; 6HR MAX TEMP:  47; 6HR PCP: TRACE;

$$




USA.gov is the U.S. government's official web portal to all federal, state and local government web resources and services.